"Pseudo-MPEC" for ZTF01rj

Created 2018 Dec 8 16:18:12 UT using Find_Orb

Click here for an explanation of pseudo-MPECs

 
 Astrometry: 
     ZTF01rj  C2018 12 04.29376007 19 32.74 -03 33 45.5          20.21rUNEOCPI41
     ZTF01rj  C2018 12 04.29925007 19 33.04 -03 33 44.7          19.99rUNEOCPI41
     ZTF01rj  C2018 12 04.30108007 19 33.15 -03 33 44.1          20.24rUNEOCPI41
     ZTF01rj  C2018 12 04.30198007 19 33.20 -03 33 44.1          20.08rUNEOCPI41
     ZTF01rj  C2018 12 04.30381007 19 33.31 -03 33 44.0          20.21rUNEOCPI41
     ZTF01rj  C2018 12 04.30747007 19 33.52 -03 33 43.1          20.12rUNEOCPI41
     ZTF01rj  C2018 12 04.31752007 19 34.11 -03 33 41.6          20.01rUNEOCPI41
     ZTF01rj  C2018 12 04.32666007 19 34.64 -03 33 39.7          20.29rUNEOCPI41
     ZTF01rj  C2018 12 04.33670007 19 35.21 -03 33 38.0          20.21rUNEOCPI41
     ZTF01rj  C2018 12 04.37419007 19 37.33 -03 33 31.0          20.10rUNEOCPI41
     ZTF01rj  C2018 12 04.37693107 19 37.51 -03 33 30.3          20.25rUNEOCPI41
     ZTF01rj  C2018 12 04.38333007 19 37.85 -03 33 29.5          20.21rUNEOCPI41
     ZTF01rj  C2018 12 04.38424007 19 37.90 -03 33 28.6          20.08rUNEOCPI41
     ZTF01rj  C2018 12 04.39247007 19 38.37 -03 33 27.7          20.14rUNEOCPI41
     ZTF01rj  C2018 12 04.39611007 19 38.60 -03 33 26.9          19.98rUNEOCPI41
     ZTF01rj  C2018 12 04.40706907 19 39.22 -03 33 24.7          20.15rUNEOCPI41
     ZTF01rj  C2018 12 04.42993107 19 40.50 -03 33 20.4          20.20rUNEOCPI41
     ZTF01rj  C2018 12 04.43175007 19 40.61 -03 33 20.2          20.17rUNEOCPI41
     ZTF01rj  C2018 12 04.43358007 19 40.71 -03 33 19.6          20.16rUNEOCPI41
     ZTF01rj  C2018 12 04.45185007 19 41.75 -03 33 16.4          20.17rUNEOCPI41
     ZTF01rj  C2018 12 04.45734007 19 42.03 -03 33 15.0          20.21rUNEOCPI41
     ZTF01rj  C2018 12 04.46100007 19 42.25 -03 33 14.4          20.25rUNEOCPI41
     ZTF01rj  C2018 12 04.47013007 19 42.77 -03 33 12.7          20.27rUNEOCPI41
     ZTF01rj  C2018 12 04.48384007 19 43.55 -03 33 09.9          20.21rUNEOCPI41
     ZTF01rj  C2018 12 04.49573007 19 44.22 -03 33 07.9          20.06rUNEOCPI41
     ZTF01rj  C2018 12 04.49756007 19 44.35 -03 33 07.6          20.06rUNEOCPI41
     ZTF01rj  C2018 12 04.49939007 19 44.41 -03 33 07.0          20.05rUNEOCPI41
     ZTF01rj  C2018 12 04.50303007 19 44.65 -03 33 06.7          20.05rUNEOCPI41
     ZTF01rj  C2018 12 04.50669007 19 44.85 -03 33 05.9          20.17rUNEOCPI41
     ZTF01rj  C2018 12 04.52365007 19 45.83 -03 33 02.2          20.06rUNEOCPI41
     ZTF01rj  C2018 12 04.97775 07 20 15.08 -03 31 33.7          22.1 VSNEOCP033
     ZTF01rj  C2018 12 04.97981 07 20 15.22 -03 31 33.2          21.6 VSNEOCP033
     ZTF01rj KC2018 12 05_;wAstrometry4??OSGlb$XKy[MsSpl?q`G;XT'hmwe[+0oRV11tL01
     ZTF01rj KC2018 12 05#Z:v+DFXR(FE%fZAqDj#!4NjKHn5pqIdGUdk!vw)wvbcV]4M7(L)L01
     ZTF01rj KC2018 12 05kie9D)^6]#2F@i]TC1kxmq'tH2:hh`X-SV7kV=':t:::]Qn_X01_L01
     ZTF01rj  C2018 12 05.42819 07 20 42.68 -03 29 48.7                VNEOCPI52
     ZTF01rj  C2018 12 05.43288 07 20 42.94 -03 29 47.3          20.6 GVNEOCPI52
     ZTF01rj KC2018 12 05^ZGk6^]GUd;OX/C;`7v#QT3bnqu@oredacted;Q4.1[yt\I)!3YMK88
     ZTF01rj KC2018 12 05y3#;'tj!DB5R-K+/EB2NCPaV#r+k@0'?x_4%YX[Wp/bA;K@]^oZhK88
     ZTF01rj KC2018 12 05H,rA^W/dkBEHvoX^kM01dHD6k4\M0sPqlKUI5?nW=ShO8YHj@pK`K88
     ZTF01rj KC2018 12 06sZby5clickf4/Zk'QDo6((8sbx@Inslk\?%+ER:Ywv1uk72NtJGv474
     ZTF01rj KC2018 12 06\8LxWBWOM'B6XGTc8f72j8cW7Zm^JOQvN.r+8EbsAxR_y,#7L:$S474
     ZTF01rj KC2018 12 06KK4GSvs84.:R`SQFVCrqGh$hHi8_:cs;p4T^,/lFa,TmR06$[7m9474
     ZTF01rj KC2018 12 06uW4EEi)QRvRm(,:5p*9RA`EJa%cD8OX]t!fL-X!ydohere4ZMfu4474
     ZTF01rj KC2018 12 066q;(NeuO,!7Yl!wa5Wacx]wd357e,(6H0kvPf%6g8.:wJOT1l,HC104
     ZTF01rj KC2018 12 07jkgT\c^BtC_3CG'@qVO]#5_F,uYHPx8u?F2\+4$YX=lUeMP6*%Ma104
     ZTF01rj KC2018 12 07H^:Y7;forksFZx%loLGZywK]VxDKe,KsLN1EBE\]jV)J.c#i8BocH36
     ZTF01rj KC2018 12 070T7*f\M10!Nn\1v:nRBdojd'Akkw((@UQ7?,e3fHD=bx1nAucw?MH36
     ZTF01rj KC2018 12 07,fm%ux:^'(K)hE%S9OVwH^V/1Zm^@3+Eb)aAC^lLe4LjhejqvA?4474
     ZTF01rj KC2018 12 07RBw$K9[l\?9b^'4NITrtP:nkv=#/Bv,GGy(m5!`x`h2hk@afJUZh474
     ZTF01rj KC2018 12 07fY[M\Lb*b=jexplanation:#2F$G-Dq$:4Et%_`^@gW:ZaVw+pUv474
     ZTF01rj  C2018 12 08.16568 07 23 34.03 -03 16 05.2          19.8 VSNEOCP033
     ZTF01rj  C2018 12 08.16775 07 23 34.16 -03 16 04.6          19.6 VSNEOCP033
     ZTF01rj  C2018 12 08.16981 07 23 34.25 -03 16 03.5          20.6 VSNEOCP033

Station data:
(033) Karl Schwarzschild Observatory, Tautenburg  (N50.980140 E11.711240)
   Germany. 1.3-m Schmidt.
(104) San Marcello Pistoiese  (N44.063037 E10.804200)  Italy. 0.40-m f/5
   reflector.
(474) Mount John Observatory, Lake Tekapo  (S43.987388 E170.464960)  New
   Zealand.  Observers A. C. Gilmore, P. M. Kilmartin. Measurer P. M.
   Kilmartin. 1.0-m f/7.7 reflector + CCD.
(H36) Sandlot Observatory, Scranton  (N38.797693 W95.706400)  US/Kansas.
   Observer G. Hug. 0.56-m reflector + CCD.
(I41) Palomar Mountain--ZTF  (N33.357340 W116.859780)  US/California. 1.2-m
   f/2.44 Oschin Schmidt + CCD.
(I52) Steward Observatory, Mt. Lemmon Station  (N32.442547 W110.788920)
   US/Arizona.  Observers B. M. Africano, E. J. Christensen, G. A. Farneth,
   D. C. Fuls, A. R. Gibbs, A. D. Grauer, H. Groeller, J. A. Johnson, R. A.
   Kowalski, S. M. Larson, G. J. Leonard, R. L. Seaman, F. C. Shelly. 1.0-m
   reflector + CCD.
(K88) GINOP-KHK, Piszkéstető  (N47.917622 E19.893600)  Hungary.  Observer K.
   Sárneczky. 0.60-m Schmidt + CCD.
(L01) Višnjan Observatory, Tičan  (N45.290900 E13.749300)  Croatia.
   Observers K. Korlević, E. Pettarin. Measurer E. Pettarin. 1.0-m f/2.9
   reflector + CCD.

Orbital elements:  ZTF01rj
   Perihelion 2019 Feb 26.029495 +/- 0.0843 TT =  0:42:28 (JD 2458540.529495)
Epoch 2018 Dec  8.0 TT = JDT 2458460.5   Earth MOID: 0.0932   AutoNEOCP
M 336.25298945 +/- 0.34             (J2000 ecliptic)
n   0.29672823 +/- 0.004            Peri.   64.09455 +/- 0.25
a   2.22619636 +/- 0.02             Node   107.78643 +/- 0.07
e   0.6026482 +/- 0.00322           Incl.   22.66971 +/- 0.06
P   3.32                   H 19.9   G  0.15   U  9.0  
q 0.88458306 +/- 0.00209    Q 3.56780966 +/- 0.0398
From 54 observations 2018 Dec. 4-8; mean residual 0".29
Residuals in arcseconds: 
181204 I41  .09+  .25+    181204 I41  .07-  .27+    181205 I52  .34+  .20+    
181204 I41  .21-  .06+    181204 I41  .06+  .02-    181205 K88  .24-  .32+    
181204 I41  .16-  .33+    181204 I41  .39-  .33+    181205 K88  .34-  .14+    
181204 I41  .20-  .17+    181204 I41  .19-  .22+    181205 K88  .14-  .34-    
181204 I41  .14-  .06-    181204 I41  .14-  .16+    181206 474  .19+  .31-    
181204 I41  .18-  .18+    181204 I41  .10-  .31+    181206 474  .30+  .08+    
181204 I41  .07-  .15-    181204 I41  .20-  .01-    181206 474  .42+  .02-    
181204 I41  .02-  .09+    181204 I41  .19+  .07-    181206 474  .22-  .57+    
181204 I41  .13-  .05-    181204 I41  .47-  .18+    181206 104  .56-  .82+    
181204 I41  .41-  .04+    181204 I41  .01+  .24-    181207 104  .86-  .62+    
181204 I41  .04-  .23+    181204 I41  .12-  .15-    181207 H36  .22-  1.0-    
181204 I41  .38-  .16-    181204 I41  .00   .21+    181207 H36  .31+  .43-    
181204 I41  .41-  .57+    181204 033  .30+  .33-    181207 474  .34+  .08+    
181204 I41  .35-  .07-    181204 033  .59+  .26-    181207 474  .29+  .23-    
181204 I41  .02+  .05+    181205 L01  .34+  .33-    181207 474  .39+  .15+    
181204 I41  .03+  .19+    181205 L01  .07-  .05-    181208 033  .11+  .06+    
181204 I41  .13-  .17+    181205 L01  .34-  .17-    181208 033  .22+  .12-    
181204 I41  .02-  .02+    181205 I52  .40+  .10-    181208 033  .27-  .20+    

Ephemerides (geocentric):
Date (UTC) HH   RA              Dec         delta   r     elong  mag " sig PA
---- -- -- --  -------------   -----------  ------ ------ -----  --- ---- ---
2018 12 08 16  07 24 06.187   -03 12 35.49  .46944 1.3638 136.4 20.2 .256 179
2018 12 08 17  07 24 08.828   -03 12 18.62  .46890 1.3635 136.4 20.2 .267 179
2018 12 08 18  07 24 11.470   -03 12 01.65  .46836 1.3631 136.4 20.2 .279 179
2018 12 08 19  07 24 14.113   -03 11 44.57  .46781 1.3628 136.5 20.2 .291 179
2018 12 08 20  07 24 16.756   -03 11 27.39  .46727 1.3624 136.5 20.2 .303 179
2018 12 08 21  07 24 19.401   -03 11 10.11  .46673 1.3620 136.5 20.2 .316 179
2018 12 08 22  07 24 22.046   -03 10 52.73  .46619 1.3617 136.5 20.2 .328   0
2018 12 08 23  07 24 24.692   -03 10 35.24  .46565 1.3613 136.6 20.2 .341   0
2018 12 09 00  07 24 27.339   -03 10 17.65  .46511 1.3609 136.6 20.2 .354   0
2018 12 09 01  07 24 29.987   -03 09 59.95  .46457 1.3606 136.6 20.2 .368   0
2018 12 09 02  07 24 32.636   -03 09 42.15  .46403 1.3602 136.6 20.2 .382   0
2018 12 09 03  07 24 35.286   -03 09 24.25  .46349 1.3599 136.7 20.2 .395   0
2018 12 09 04  07 24 37.936   -03 09 06.24  .46295 1.3595 136.7 20.2 .410   0
2018 12 09 05  07 24 40.588   -03 08 48.12  .46241 1.3591 136.7 20.2 .424   0
2018 12 09 06  07 24 43.240   -03 08 29.90  .46187 1.3588 136.8 20.2 .439   0
2018 12 09 07  07 24 45.894   -03 08 11.57  .46133 1.3584 136.8 20.2 .454   0
2018 12 09 08  07 24 48.548   -03 07 53.14  .46079 1.3581 136.8 20.2 .469   0
2018 12 09 09  07 24 51.203   -03 07 34.59  .46025 1.3577 136.8 20.2 .484   0
2018 12 09 10  07 24 53.860   -03 07 15.95  .45971 1.3573 136.9 20.2 .500   0
2018 12 09 11  07 24 56.517   -03 06 57.19  .45917 1.3570 136.9 20.2 .516   0
2018 12 09 12  07 24 59.175   -03 06 38.32  .45863 1.3566 136.9 20.2 .532   0
2018 12 09 13  07 25 01.834   -03 06 19.35  .45809 1.3562 137.0 20.2 .548   0
2018 12 09 14  07 25 04.494   -03 06 00.27  .45755 1.3559 137.0 20.1 .565   0
2018 12 09 15  07 25 07.155   -03 05 41.08  .45701 1.3555 137.0 20.1 .582   0
2018 12 09 16  07 25 09.818   -03 05 21.78  .45648 1.3552 137.0 20.1 .599   1
2018 12 09 17  07 25 12.481   -03 05 02.37  .45594 1.3548 137.1 20.1 .617   1
2018 12 09 18  07 25 15.145   -03 04 42.85  .45540 1.3544 137.1 20.1 .635   1
2018 12 09 19  07 25 17.810   -03 04 23.22  .45486 1.3541 137.1 20.1 .653   1
2018 12 09 20  07 25 20.477   -03 04 03.48  .45432 1.3537 137.2 20.1 .671   1
2018 12 09 21  07 25 23.144   -03 03 43.63  .45379 1.3533 137.2 20.1 .690   1
2018 12 09 22  07 25 25.813   -03 03 23.66  .45325 1.3530 137.2 20.1 .709   1
2018 12 09 23  07 25 28.482   -03 03 03.59  .45271 1.3526 137.2 20.1 .728   1
2018 12 10 00  07 25 31.153   -03 02 43.40  .45217 1.3523 137.3 20.1 .747   1
2018 12 10 01  07 25 33.825   -03 02 23.10  .45164 1.3519 137.3 20.1 .767   1
2018 12 10 02  07 25 36.497   -03 02 02.69  .45110 1.3515 137.3 20.1 .787   1
2018 12 10 03  07 25 39.171   -03 01 42.16  .45056 1.3512 137.4 20.1 .807   1
2018 12 10 04  07 25 41.846   -03 01 21.53  .45003 1.3508 137.4 20.1 .828   1
2018 12 10 05  07 25 44.523   -03 01 00.77  .44949 1.3505 137.4 20.1 .849   1
2018 12 10 06  07 25 47.200   -03 00 39.91  .44896 1.3501 137.4 20.1 .870   1
2018 12 10 07  07 25 49.879   -03 00 18.92  .44842 1.3497 137.5 20.1 .892   1
2018 12 10 08  07 25 52.558   -02 59 57.83  .44789 1.3494 137.5 20.1 .913   1
2018 12 10 09  07 25 55.239   -02 59 36.62  .44735 1.3490 137.5 20.1 .935   1
2018 12 10 10  07 25 57.921   -02 59 15.29  .44681 1.3486 137.5 20.1 .958   1
2018 12 10 11  07 26 00.605   -02 58 53.85  .44628 1.3483 137.6 20.1 .980   1
2018 12 10 12  07 26 03.289   -02 58 32.29  .44574 1.3479 137.6 20.1 1.00   1
2018 12 10 13  07 26 05.975   -02 58 10.61  .44521 1.3476 137.6 20.1 1.03   2
2018 12 10 14  07 26 08.662   -02 57 48.81  .44468 1.3472 137.7 20.1 1.05   2
2018 12 10 15  07 26 11.350   -02 57 26.90  .44414 1.3468 137.7 20.1 1.07   2